Regional Weather Roundup
Issued by NWS

Home | Current Version | Previous Version | Graphics & Text | Print | Product List | Glossary On
Versions: 1 2 3 4 5 6 7 8 9 10 11 12 13 14 15 16 17 18 19 20 21 22 23 24 25 26 27 28 29 30 31 32 33 34 35 36 37 38 39 40 41 42 43 44 45 46 47 48 49 50
000
ASUS44 KMEG 170510
RWRTN
TENNESSEE HOURLY STATE WEATHER ROUNDUP
NATIONAL WEATHER SERVICE MEMPHIS TN
1200 AM CDT THU AUG 17 2017

TNZ002-004-019-021-049-052-054-088>092-170600-
WEST TENNESSEE

CITY           SKY/WX    TMP DP  RH WIND       PRES   REMARKS
MEMPHIS INTL   CLEAR     80  75  84 S12       29.99R
NWS MEMPHIS      N/A     80 N/A N/A MISG        N/A
JACKSON        CLEAR     78  76  93 S7        29.98F
DYERSBURG      CLEAR     78  76  93 S5        29.97F
COVINGTON      CLEAR     79  75  89 S6        29.97S
UNION CITY     CLEAR     77  75  94 S7        29.95F
PARIS          PTCLDY    75  75 100 S5        29.97F
LEXINGTON      CLEAR     77  75  94 CALM      29.99S
SELMER         CLEAR     77  75  94 CALM      30.00S
SAVANNAH       CLEAR     77  75  94 S5        29.99F
$$

TNZ008-025-027-028-033-062-065-066-170600-
NORTH MIDDLE TENNESSEE

CITY           SKY/WX    TMP DP  RH WIND       PRES   REMARKS
NASHVILLE      CLOUDY    76  73  91 S3        30.02F
PORTLAND       PTCLDY    75  73  94 S7        30.01F
CLARKSVILLE    CLEAR     77  74  90 S3        29.99S
SMYRNA         CLOUDY    76  74  93 S5        30.03S
COOKEVILLE       N/A     72  72 100 CALM      30.05S
GALLATIN       CLOUDY    79  73  83 S3        30.04S
CROSSVILLE     PTCLDY    73  70  90 CALM      30.12S
$$

TNZ061-075-076-078-094-096-097-170600-
SOUTH MIDDLE TENNESSEE

CITY           SKY/WX    TMP DP  RH WIND       PRES   REMARKS
FAYETTEVILLE   CLEAR     75  75 100 SE3       30.05F
TULLAHOMA      CLEAR     75  72  88 S5        30.07S
WINCHESTER     CLOUDY    77  73  88 CALM      30.07S
MCMINNVILLE    CLEAR     75  75 100 CALM      30.06F
COLUMBIA       MOCLDY    77  75  94 CALM      30.00S
SHELBYVILLE    CLEAR     75  73  94 SE3       30.04S
$$

TNZ017-018-042-046-047-170600-
NORTHEAST TENNESSEE

CITY           SKY/WX    TMP DP  RH WIND       PRES   REMARKS
TRI CITIES     PTCLDY    71  70  96 CALM      30.10F FOG
ELIZABETHTON   CLEAR     73  72  94 NE5       30.12S
$$

TNZ012-013-036-069-073-074-170600-
CENTRAL EAST TENNESSEE

CITY           SKY/WX    TMP DP  RH WIND       PRES   REMARKS
KNOXVILLE      PTCLDY    76  71  85 SW6       30.05F
OAK RIDGE      PTCLDY    76  72  87 CALM      30.07F
DOWNTOWN KNOXV   N/A     73  73 100 CALM      30.05S
GATLINBURG     CLEAR     73  72  94 CALM      30.06F
MORRISTOWN     CLEAR     75  72  88 CALM      30.07F
$$

TNZ083-085-099-170600-
SOUTHEAST TENNESSEE

CITY           SKY/WX    TMP DP  RH WIND       PRES   REMARKS
CHATTANOOGA    CLEAR     80  74  81 SW3       30.06F
DAYTON         MOCLDY    77  77 100 SW3       30.05S
$$

SKY/WX REPORTED AS FAIR MEANS FEW OR NO CLOUDS BELOW
12 THOUSAND FEET.




USA.gov is the U.S. government's official web portal to all federal, state and local government web resources and services.